星链-1327 (STARLINK-1327 )

导读 | 星芒AI

STARLINK-1327 是 SpaceX Starlink 卫星互联网项目中的一颗低轨卫星,属于第 13 批部署的 Starlink 卫星群。该卫星于 2020 年 11 月 24 日由猎鹰 9 号火箭从美国卡纳维拉尔角发射升空。它运行在约 550 公里的高度,旨在为全球提供高速互联网服务。Starlink 项目计划部署数万颗卫星,以构建覆盖全球的宽带网络,尤其服务于偏远地区。STARLINK-1327 采用先进推进系统和激光通信技术,有助于提升网络性能和减少空间碎片风险。

基本信息
目录编号:
45555
目录名称:
STARLINK-1327
国际标识:
2020-025AA
轨道中心:
EARTH
卫星名称:
星链-1327
卫星全名:
星链-1327 (STARLINK-1327 )
卫星状态:
在轨 (已飞行2064 天)
发射日期:
2020-04-22 UTC
国别 :
美国 (US)
星等 :
--
轨道信息
数据来源 国际轨道数据
星历时间: 2025-12-15T01:54:06+0800
1天前
查看轨道信息
半长轴: 6925.418km
偏心率: 0.0001442
轨道倾角: 53.054°
近地点辐角 93.790°
升交点赤经 107.945°
平近点角 266.325°
近地点: 546.284km
远地点: 548.282km
周期: 95.594分钟
每日圈数: 15.063775
详细信息
固有亮度:
5
最大亮度:
2.5
卫星平台:
Starlink V1.0
覆盖范围:
全球
运营商:
太空探索技术公司
运营商所在国:
美国
制造商(研发单位):
太空探索技术公司
制造商所在国:
美国
使用方式:
暂无
卫星简介
星链(Starlink)计划是由太空探索技术公司(SpaceX)提出的一个巨型低轨卫星互联网星座项目,计划在2019年至2024年间在太空搭建由约1.2万颗卫星组成的“星链”网络,其中1584颗将部署在地球上空550千米处的近地轨道,并从2020年开始工作。该卫星仍在工作。
2D轨道图
3D轨道图
轨道高度分析图
轨道倾角分析图
轨道综合分析图
查看轨道综合分析图